Location: Be?i?
(36.9044°N, 30.1006°E)
Time: 13:12:54
(UTC+00:00)

Cosmos 1536 Rocket - Pass Details

Date: 05 August 2024
Orbit: 602 x 627 km, 82.5° (Epoch: 08 September)

Event Time Altitude Azimuth Distance (km) Brightness Sun altitude
Rises 17:32:22 0° 194° (SSW) 2,837 6.8 -6.4°
Reaches altitude 10° 17:34:35 10° 197° (SSW) 1,939 6.0 -6.8°
Maximum altitude 17:38:49 62° 278° (W) 684 4.1 -7.5°
Drops below altitude 10° 17:43:07 10° 360° (N) 1,961 6.5 -8.3°
Sets 17:45:22 0° 4° (N) 2,873 7.3 -8.7°
